This is the latest recevied weather packets stored in our database for station/object DM4XI-13. If no packets are shown the sender has not sent any weather packets the latest 10 day(s).
| Time | Temp. | Humidity | Pressure | Rain* | Wind** | Luminosity | Snow |
|---|---|---|---|---|---|---|---|
| 1777186425 | 9.44° C | 62% | 1020.3 hPa | 0 mm | 0.89 m/s, 286° | 247 W/m² | - |
| 1777186363 | 9.44° C | 62% | 1020.3 hPa | 0 mm | 0.89 m/s, 88° | 243 W/m² | - |
| 1777186303 | 9.44° C | 62% | 1020.4 hPa | 0 mm | 0.89 m/s, 258° | 241 W/m² | - |
| 1777186242 | 9.44° C | 62% | 1020.3 hPa | 0 mm | 1.79 m/s, 357° | 238 W/m² | - |
| 1777186181 | 9.44° C | 62% | 1020.3 hPa | 0 mm | 1.79 m/s, 328° | 236 W/m² | - |
| 1777186120 | 9.44° C | 62% | 1020.4 hPa | 0 mm | 0.89 m/s, 4° | 234 W/m² | - |
| 1777186058 | 9.44° C | 61% | 1020.3 hPa | 0 mm | 0.89 m/s, 1° | 235 W/m² | - |
| 1777185998 | 9.44° C | 61% | 1020.5 hPa | 0 mm | 1.79 m/s, 337° | 232 W/m² | - |
| 1777185936 | 9.44° C | 62% | 1020.3 hPa | 0 mm | 1.34 m/s, 286° | 230 W/m² | - |
| 1777185876 | 9.44° C | 62% | 1020.3 hPa | 0 mm | 1.34 m/s, 17° | 226 W/m² | - |
| 1777185814 | 9.44° C | 62% | 1020.4 hPa | 0 mm | 0.89 m/s, 293° | 223 W/m² | - |
| 1777185754 | 9.44° C | 63% | 1020.4 hPa | 0 mm | 1.34 m/s, 305° | 222 W/m² | - |
| 1777185693 | 9.44° C | 62% | 1020.3 hPa | 0 mm | 1.34 m/s, 20° | 220 W/m² | - |
| 1777185632 | 9.44° C | 63% | 1020.4 hPa | 0 mm | 0.89 m/s, 311° | 219 W/m² | - |
| 1777185570 | 9.44° C | 63% | 1020.3 hPa | 0 mm | 0.45 m/s, 156° | 215 W/m² | - |
| 1777185509 | 9.44° C | 63% | 1020.3 hPa | 0 mm | 0.89 m/s, 293° | 213 W/m² | - |
| 1777185387 | 8.89° C | 63% | 1020.3 hPa | 0 mm | 1.79 m/s, 347° | 207 W/m² | - |
| 1777185326 | 8.89° C | 63% | 1020.2 hPa | 0 mm | 0.89 m/s, 251° | 206 W/m² | - |
| 1777185265 | 8.89° C | 64% | 1020.3 hPa | 0 mm | 0.89 m/s, 349° | 203 W/m² | - |
| 1777185204 | 8.89° C | 63% | 1020.4 hPa | 0 mm | 1.79 m/s, 327° | 202 W/m² | - |
| 1777185144 | 8.89° C | 64% | 1020.3 hPa | 0 mm | 0.89 m/s, 321° | 199 W/m² | - |
| 1777185082 | 8.89° C | 64% | 1020.2 hPa | 0 mm | 1.34 m/s, 2° | 199 W/m² | - |
| 1777185021 | 8.89° C | 63% | 1020.2 hPa | 0 mm | 0.89 m/s, 44° | 197 W/m² | - |
| 1777184961 | 8.89° C | 63% | 1020.3 hPa | 0 mm | 1.34 m/s, 51° | 193 W/m² | - |
| 1777184899 | 8.89° C | 63% | 1020.2 hPa | 0 mm | 1.34 m/s, 346° | 192 W/m² | - |
* Rain latest hour (hover to see other rain measurements)
** Current wind speed in m/s (hover to see current wind gust speed)